Weather observations for the past three days for
Olive Branch, Olive Branch Airport
Metric (Imperial)
Date Time (cdt) Wind (kph) Vis. (km) Weather Sky Cond. Temperature (ºC) Relative Humidity Wind Chill (°C) Heat Index (°C) Pressure Precipitation (cm)
Air Dwpt 6 hour altimeter (cm) sea level (mb) 1 hr 3 hr 6 hr
Max. Min.
10 07:50 SW 7 16.09 Fair CLR 21 19 88% 76.2 0.0
10 06:50 Calm 16.09 Fair CLR 17 17 100% 76.17 0.0
10 06:35 Calm 14.48 Fair CLR 17 17 100% 76.15 0.0
10 06:15 Calm 11.27 Fair CLR 16 16 100% 76.15 0.0
10 05:55 S 6 12.87 Fair CLR 16 16 100% 76.12 0.0
10 05:35 S 6 16.09 Fair CLR 16 16 100% 76.1 0.0
10 05:15 S 6 16.09 Fair CLR 16 16 100% 76.07 0.0
10 04:55 Calm 16.09 Fair CLR 16 16 100% 76.07 0.0
10 04:35 Calm 16.09 Fair CLR 16 16 100% 76.05 0.0
10 04:15 Calm 16.09 Fair CLR 17 17 100% 76.02 0.0
10 03:55 Calm 16.09 Fair CLR 17 17 100% 76.02 0.0
10 03:35 Calm 16.09 Fair CLR 17 17 100% 76.02 0.0
10 03:15 S 7 16.09 Fair CLR 17 17 100% 76 0.0
10 02:55 S 9 16.09 Fair CLR 17 17 100% 76 0.0
10 02:35 SW 7 16.09 Fair CLR 17 16 94% 76 0.0
10 02:15 S 9 16.09 Fair CLR 17 16 94% 76 0.0
10 01:55 S 7 16.09 A Few Clouds FEW050 18 16 88% 76.02 0.0
10 01:35 S 11 16.09 A Few Clouds FEW050 18 16 88% 76 0.0
10 01:15 S 9 16.09 Fair CLR 17 15 88% 75.97 0.0
10 00:55 S 7 16.09 Fair CLR 17 14 83% 75.97 0.0
10 00:35 S 7 16.09 Fair CLR 17 12 73% 76 0.0
10 00:15 Calm 16.09 Fair CLR 17 11 68% 75.97 0.0
09 23:55 SE 9 16.09 Fair CLR 18 12 68% 75.97 0.0
09 23:35 S 6 16.09 Fair CLR 18 11 64% 75.95 0.0
09 23:15 S 7 16.09 A Few Clouds FEW050 FEW055 17 11 68% 75.97 0.0
09 22:55 Calm 16.09 Fair CLR 19 12 64% 75.97 0.0
09 22:35 Calm 16.09 Fair CLR 19 11 60% 75.97 0.0
09 22:15 Calm 16.09 A Few Clouds FEW050 FEW060 19 11 60% 75.97 0.0
09 21:55 Calm 16.09 A Few Clouds FEW050 19 11 60% 75.97 0.0
09 21:35 Calm 16.09 Fair CLR 21 11 53% 75.95 0.0
09 21:15 Calm 16.09 Fair CLR 22 9 44% 75.95 0.0
09 19:50 Calm 16.09 Fair CLR 24 8 36% 25 75.84 0.0
09 18:50 Calm 16.09 Fair CLR 27 8 30% 26 75.79 0.0
09 17:50 Calm 16.09 Fair CLR 28 6 25% 27 75.77 0.0
09 16:50 Calm 16.09 Fair CLR 28 7 26% 27 75.74 0.0
09 15:50 Calm 16.09 Fair CLR 28 8 28% 27 75.79 0.0
09 14:50 E 9 16.09 Fair CLR 28 8 28% 27 75.79 0.0
09 13:50 NE 9 16.09 Fair CLR 27 9 32% 27 75.82 0.0
09 12:50 N 9 16.09 Fair CLR 26 10 37% 26 75.84 0.0
09 11:50 W 9 16.09 Fair CLR 25 12 44% 26 75.87 0.0
09 10:50 N 13 G 22 16.09 Fair CLR 24 12 47% 25 75.87 0.0
09 09:50 W 9 16.09 Fair CLR 22 15 65% 75.84 0.0
09 08:50 SW 9 16.09 Fair CLR 20 15 73% 75.82 0.0
09 07:50 SW 7 16.09 Fair CLR 18 15 83% 75.82 0.0
09 06:50 S 11 16.09 Fair CLR 14 14 100% 75.79 0.0
09 06:35 S 9 14.48 Fair CLR 13 13 100% 75.79 0.0
09 06:15 S 11 14.48 Fair CLR 13 13 100% 75.79 0.0
09 05:55 S 9 16.09 Fair CLR 13 13 100% 75.77 0.0
09 05:35 S 9 16.09 Fair CLR 13 13 100% 75.77 0.0
09 05:15 S 7 16.09 Fair CLR 13 13 100% 75.74 0.0
09 04:55 SW 7 16.09 Fair CLR 13 13 100% 75.77 0.0
09 04:35 S 7 16.09 Fair CLR 13 13 100% 75.77 0.0
09 04:15 S 7 16.09 Fair CLR 13 13 100% 75.74 0.0
09 03:55 S 6 16.09 Fair CLR 13 13 100% 75.72 0.0
09 03:35 S 7 16.09 Fair CLR 13 13 100% 75.72 0.0
09 03:15 S 9 16.09 Fair CLR 13 13 100% 75.72 0.0
09 02:55 S 9 16.09 Fair CLR 14 13 94% 75.72 0.0
09 02:35 S 11 16.09 Fair CLR 14 13 94% 75.72 0.0
09 02:15 S 9 16.09 Fair CLR 15 13 88% 75.74 0.0
09 01:55 SW 7 16.09 Fair CLR 15 13 88% 75.74 0.0
09 01:35 S 15 16.09 Fair CLR 15 13 88% 75.69 0.0
09 01:15 S 13 16.09 Fair CLR 14 13 94% 75.77 0.0
09 00:55 S 13 16.09 Fair CLR 14 12 88% 75.79 0.0
09 00:35 S 11 16.09 Fair CLR 14 12 88% 75.82 0.0
09 00:15 S 13 16.09 A Few Clouds FEW034 FEW040 14 12 88% 75.82 0.0
08 23:55 S 9 16.09 Fair CLR 14 12 88% 75.87 0.0
08 23:35 S 9 16.09 Fair CLR 14 12 88% 75.87 0.0
08 23:15 S 9 16.09 Fair CLR 15 12 82% 75.87 0.0
08 22:55 S 11 16.09 Fair CLR 15 12 82% 75.84 0.0
08 22:35 S 13 16.09 Fair CLR 16 12 77% 75.82 0.0
08 22:15 S 11 16.09 Fair CLR 16 12 77% 75.82 0.0
08 21:55 S 11 16.09 A Few Clouds FEW039 16 11 72% 75.84 0.0
08 21:35 S 9 16.09 A Few Clouds FEW039 16 11 72% 75.84 0.0
08 21:15 S 11 16.09 Fair CLR 16 11 72% 75.82 0.0
08 19:50 S 11 16.09 Partly Cloudy SCT046 19 10 56% 75.82 0.0
08 18:50 S 17 16.09 Fair CLR 22 8 41% 75.79 0.0
08 17:50 S 17 16.09 Fair CLR 23 9 41% 75.82 0.0
08 15:50 S 17 G 30 16.09 Fair CLR 25 9 36% 26 75.87 0.0
08 14:50 S 22 16.09 Fair CLR 24 9 39% 25 75.92 0.0
08 13:50 S 7 G 20 16.09 Fair CLR 23 7 36% 75.97 0.0
08 12:50 S 11 G 20 16.09 Fair CLR 23 7 36% 76.07 0.0
08 11:50 S 11 16.09 Fair CLR 22 7 38% 76.15 0.0
08 10:50 SE 7 G 19 16.09 Fair CLR 21 7 40% 76.2 0.0
08 09:50 S 9 G 22 16.09 Fair CLR 19 8 49% 76.25 0.0
08 08:50 SE 6 16.09 Fair CLR 16 8 59% 76.25 0.0
08 07:50 SE 6 16.09 Fair CLR 15 8 63% 76.28 0.0
08 06:50 Calm 16.09 Fair CLR 9 8 94% 76.25 0.0
08 06:35 Calm 16.09 Fair CLR 9 8 94% 76.25 0.0
08 06:15 Calm 16.09 Fair CLR 9 8 94% 76.23 0.0
08 05:55 Calm 16.09 Fair CLR 9 8 94% 76.23 0.0
08 05:35 Calm 16.09 Fair CLR 9 9 100% 76.23 0.0
08 05:15 Calm 16.09 Fair CLR 10 9 94% 76.23 0.0
08 04:55 Calm 16.09 Fair CLR 9 9 100% 76.2 0.0
08 04:35 Calm 16.09 Fair CLR 10 9 94% 76.2 0.0
08 04:15 Calm 16.09 Fair CLR 10 9 94% 76.2 0.0
08 03:55 Calm 16.09 Fair CLR 10 9 94% 76.17 0.0
08 03:35 Calm 16.09 Fair CLR 10 10 100% 76.17 0.0
08 03:15 Calm 16.09 Fair CLR 10 10 100% 76.17 0.0
08 02:55 Calm 16.09 Fair CLR 11 9 88% 76.17 0.0
08 02:35 Calm 16.09 Fair CLR 11 9 88% 76.17 0.0
08 02:15 Calm 16.09 Fair CLR 11 9 88% 76.2 0.0
08 01:55 Calm 16.09 Fair CLR 11 9 88% 76.2 0.0
08 01:35 Calm 16.09 Fair CLR 12 9 82% 76.23 0.0
08 01:15 Calm 16.09 Fair CLR 12 9 82% 76.25 0.0
08 00:55 Calm 16.09 Fair CLR 12 9 82% 76.23 0.0
08 00:35 Calm 16.09 Fair CLR 12 8 77% 76.23 0.0
08 00:15 E 7 16.09 Fair CLR 12 9 82% 76.23 0.0
07 23:55 Calm 16.09 Fair CLR 12 8 77% 76.23 0.0
07 23:35 Calm 16.09 Fair CLR 13 10 82% 76.25 0.0
07 23:15 Calm 16.09 Fair CLR 14 8 67% 76.25 0.0
07 22:55 Calm 16.09 Fair CLR 14 9 72% 76.25 0.0
07 22:35 Calm 16.09 Fair CLR 12 9 82% 76.25 0.0
07 22:15 Calm 16.09 Fair CLR 14 8 67% 76.25 0.0
07 21:55 Calm 16.09 Fair CLR 15 8 63% 76.23 0.0
07 21:35 Calm 16.09 A Few Clouds FEW044 14 8 67% 76.23 0.0
07 21:15 Calm 16.09 Partly Cloudy SCT044 15 7 59% 76.23 0.0
07 19:50 NW 7 16.09 Fair CLR 16 7 55% 76.17 0.0
07 18:50 N 7 16.09 Fair CLR 18 7 49% 76.15 0.0
07 17:50 NW 6 16.09 Fair CLR 20 4 35% 76.15 0.0
07 16:50 N 15 16.09 Fair CLR 21 5 35% 76.15 0.0
07 15:50 N 13 16.09 Partly Cloudy SCT060 21 4 33% 76.15 0.0
07 14:50 Calm 16.09 A Few Clouds FEW060 21 4 33% 76.17 0.0
07 13:50 N 7 16.09 Partly Cloudy SCT055 20 5 38% 76.25 0.0
07 12:50 NW 13 16.09 Partly Cloudy SCT060 19 6 43% 76.28 0.0
07 11:50 NE 15 G 28 16.09 Fair CLR 18 6 46% 76.33 0.0
07 10:50 N 17 16.09 Fair CLR 17 6 49% 76.33 0.0
07 09:50 N 17 16.09 Fair CLR 16 9 63% 76.38 0.0
07 08:50 N 17 16.09 Fair CLR 14 9 72% 76.33 0.0
Date Time (cdt) Wind (kph) Vis. (km) Weather Sky Cond. Air Dwpt Max. Min. Relative Humidity Wind Chill (°C) Heat Index (°C) altimeter (cm) sea level (mb) 1 hr 3 hr 6 hr
6 hour
Temperature (ºC) Pressure Precipitation (cm)